Weather History for Kenai, AK

Change the Weather History Date:

Monday, April 14, 2014

  Actual Average Record
Temperature  
Mean Temperature 36 °F -  
Max Temperature 46 °F 40 °F 51 °F (1958)
Min Temperature 25 °F 25 °F -6 °F (1972)
Degree Days  
Heating Degree Days 30    
Moisture  
Dew Point 27 °F    
Average Humidity 72    
Maximum Humidity 96    
Minimum Humidity 46    
Precipitation  
Precipitation 0.00 in - - ()
Sea Level Pressure  
Sea Level Pressure 29.95 in    
Wind  
Wind Speed 5 mph (NNW)    
Max Wind Speed 13 mph    
Max Gust Speed 16 mph    
Visibility 10 miles    
Events      
Averages and records for this station are not official NWS values.
T = Trace of Precipitation, MM = Missing Value Source: NWS Daily Summary

Daily Weather History Graph

Daily Weather History Graph

Search for Another Location

Airport:

Trip Planner

Search our weather history database for the weather conditions in past years. The results will help you decide how hot, cold, wet, or windy it might be!

Date:

Astronomy

Apr. 14, 2014 Rise Set
Actual Time 6:48 AM AKDT 9:23 PM AKDT
Civil Twilight 6:01 AM AKDT 10:10 PM AKDT
Nautical Twilight 4:59 AM AKDT 11:14 PM AKDT
Astronomical Twilight 3:29 AM AKDT 12:48 AM AKDT
Moon 9:12 PM AKDT (4/14) 6:36 AM AKDT (4/14)
Length of Visible Light 16h 08m
Length of Day
14h 34m
Full, 100% of the Moon is Illuminated
Apr 14
Full
Apr 14
Full
Apr 21
Last Quarter
Apr 28
New
May 6
First Quarter

Hourly Weather History & Observations

Time (AKDT) Temp. Windchill Dew Point Humidity Pressure Visibility Wind Dir Wind Speed Gust Speed Precip Events Conditions
12:53 AM 30.9 °F 26.2 °F 28.9 °F 92% 30.02 in 10.0 mi NNW 4.6 mph - N/A   Mostly Cloudy
1:53 AM 28.9 °F - 27.0 °F 92% 30.03 in 10.0 mi Calm Calm - N/A   Clear
2:53 AM 28.9 °F 25.2 °F 28.0 °F 96% 30.02 in 10.0 mi North 3.5 mph - N/A   Clear
3:53 AM 28.9 °F - 27.0 °F 92% 30.01 in 10.0 mi Calm Calm - N/A   Clear
4:53 AM 27.0 °F - 26.1 °F 96% 30.01 in 10.0 mi Calm Calm - N/A   Clear
5:53 AM 25.0 °F 18.1 °F 24.1 °F 96% 30.00 in 10.0 mi NW 5.8 mph - N/A   Clear
6:53 AM 25.0 °F 19.3 °F 24.1 °F 96% 30.00 in 10.0 mi NNE 4.6 mph - N/A   Clear
7:53 AM 28.0 °F 22.8 °F 27.0 °F 96% 29.99 in 10.0 mi North 4.6 mph - N/A   Clear
8:53 AM 32.0 °F - 30.0 °F 92% 29.99 in 10.0 mi Calm Calm - N/A   Clear
9:53 AM 37.0 °F 33.3 °F 30.0 °F 76% 29.99 in 10.0 mi NE 4.6 mph - N/A   Clear
10:53 AM 41.0 °F 35.8 °F 28.0 °F 60% 29.98 in 10.0 mi North 8.1 mph - N/A   Clear
11:53 AM 44.1 °F 40.1 °F 28.9 °F 55% 29.97 in 10.0 mi NNE 6.9 mph - N/A   Clear
12:53 PM 45.0 °F 39.7 °F 28.9 °F 53% 29.95 in 10.0 mi North 10.4 mph - N/A   Clear
1:53 PM 46.0 °F 40.2 °F 28.9 °F 51% 29.94 in 10.0 mi North 12.7 mph - N/A   Clear
2:53 PM 46.0 °F 40.6 °F 27.0 °F 47% 29.92 in 10.0 mi North 11.5 mph - N/A   Clear
3:53 PM 46.9 °F - 27.0 °F 46% 29.91 in 10.0 mi North 11.5 mph - N/A   Clear
4:53 PM 46.9 °F - 27.0 °F 46% 29.89 in 10.0 mi North 11.5 mph 16.1 mph N/A   Clear
5:53 PM 46.0 °F 40.2 °F 27.0 °F 47% 29.88 in 10.0 mi NNW 12.7 mph - N/A   Clear
6:53 PM 44.1 °F 39.0 °F 28.9 °F 55% 29.88 in 10.0 mi WNW 9.2 mph - N/A   Clear
7:53 PM 43.0 °F 38.8 °F 28.0 °F 56% 29.87 in 10.0 mi NW 6.9 mph - N/A   Clear
8:53 PM 39.2 °F 35.0 °F 26.6 °F 61% 29.86 in 10.0 mi WNW 5.8 mph - N/A   Clear
9:53 PM 37.0 °F 34.5 °F 26.1 °F 65% 29.86 in 10.0 mi WNW 3.5 mph - N/A   Partly Cloudy
10:53 PM 34.0 °F 29.8 °F 27.0 °F 75% 29.86 in 10.0 mi NNW 4.6 mph - N/A   Overcast
11:53 PM 34.0 °F 29.8 °F 27.0 °F 75% 29.85 in 10.0 mi NNW 4.6 mph - N/A   Overcast